TimeCDT,TemperatureF,Dew PointF,Humidity,Sea Level PressureIn,VisibilityMPH,Wind Direction,Wind SpeedMPH,Gust SpeedMPH,PrecipitationIn,Events,Conditions,WindDirDegrees,DateUTC
12:53 AM,75.0,70.0,84,29.87,10.0,SSE,5.8,-,N/A,,Clear,160,2013-05-20 05:53:00
2:08 AM,75.2,71.6,89,29.86,10.0,SSE,8.1,-,N/A,,Mostly Cloudy,160,2013-05-20 07:08:00
2:23 AM,75.2,71.6,89,29.86,10.0,South,8.1,-,N/A,,Overcast,180,2013-05-20 07:23:00
2:53 AM,75.0,71.1,87,29.85,10.0,South,5.8,-,N/A,,Overcast,170,2013-05-20 07:53:00
3:34 AM,75.2,71.6,89,29.86,10.0,South,6.9,-,N/A,,Overcast,170,2013-05-20 08:34:00
3:53 AM,75.9,71.1,85,29.85,10.0,South,9.2,-,N/A,,Overcast,170,2013-05-20 08:53:00
5:24 AM,73.4,71.6,94,29.86,8.0,SSE,4.6,-,N/A,,Mostly Cloudy,160,2013-05-20 10:24:00
5:33 AM,73.4,71.6,94,29.86,7.0,SSE,4.6,-,N/A,,Overcast,150,2013-05-20 10:33:00
5:50 AM,73.4,71.6,94,29.87,7.0,South,3.5,-,N/A,,Overcast,180,2013-05-20 10:50:00
5:53 AM,73.4,71.6,94,29.87,7.0,South,3.5,-,N/A,,Overcast,180,2013-05-20 10:53:00
6:30 AM,73.4,71.6,94,29.88,5.0,SE,4.6,-,N/A,,Overcast,140,2013-05-20 11:30:00
6:53 AM,73.0,71.1,93,29.87,5.0,SE,3.5,-,N/A,,Scattered Clouds,140,2013-05-20 11:53:00
7:53 AM,75.9,71.1,85,29.88,10.0,South,9.2,-,N/A,,Overcast,170,2013-05-20 12:53:00
8:53 AM,78.8,71.6,78,29.90,10.0,SSE,13.8,-,N/A,,Overcast,150,2013-05-20 13:53:00
10:53 AM,80.1,70.0,71,29.91,10.0,South,11.5,16.1,N/A,,Overcast,180,2013-05-20 15:53:00
11:23 AM,80.6,71.6,74,29.92,10.0,South,12.7,-,N/A,,Overcast,170,2013-05-20 16:23:00
11:41 AM,82.4,71.6,70,29.92,10.0,South,11.5,17.3,N/A,,Overcast,180,2013-05-20 16:41:00
11:53 AM,82.0,71.1,69,29.91,10.0,SSE,13.8,19.6,N/A,,Overcast,160,2013-05-20 16:53:00
12:08 PM,82.4,71.6,70,29.91,10.0,SSE,12.7,-,N/A,,Overcast,150,2013-05-20 17:08:00
1:53 PM,86.0,72.0,63,29.87,10.0,South,8.1,-,N/A,,Mostly Cloudy,170,2013-05-20 18:53:00
2:53 PM,89.1,72.0,57,29.85,10.0,SSE,12.7,20.7,N/A,,Scattered Clouds,160,2013-05-20 19:53:00
3:53 PM,90.0,71.1,54,29.82,10.0,South,13.8,21.9,N/A,,Scattered Clouds,170,2013-05-20 20:53:00
4:53 PM,88.0,70.0,55,29.80,10.0,SSE,17.3,24.2,N/A,,Partly Cloudy,160,2013-05-20 21:53:00
5:53 PM,86.0,70.0,59,29.78,10.0,SSE,15.0,26.5,N/A,,Scattered Clouds,150,2013-05-20 22:53:00
6:53 PM,84.0,71.1,65,29.77,10.0,SE,13.8,21.9,N/A,,Partly Cloudy,140,2013-05-20 23:53:00
7:53 PM,81.0,70.0,69,29.79,10.0,SSE,11.5,-,N/A,,Clear,150,2013-05-21 00:53:00
8:53 PM,78.8,71.6,78,29.83,10.0,SSE,8.1,-,N/A,,Clear,160,2013-05-21 01:53:00
9:53 PM,78.1,71.1,79,29.83,10.0,SE,10.4,-,N/A,,Clear,140,2013-05-21 02:53:00
10:53 PM,78.1,72.0,81,29.85,10.0,South,6.9,-,N/A,,Mostly Cloudy,170,2013-05-21 03:53:00
11:53 PM,79.0,72.0,79,29.86,10.0,South,3.5,-,N/A,,Overcast,170,2013-05-21 04:53:00